DRAUGEN current weather conditions

sailwx.info

Wind from 250 at 26 knots

Air temperature 14.0° C
Dewpoint 12.0° C

Last reported at 2015-Aug-28 13:20 UTC.
Time now 2015-Aug-28 14:50 UTC

Location: N 64°22' E 007°47'.
View on Google Maps.

See reports from other nearby stations

  
Tides and Currents Weather Stations Pressure Air Temp Water Temp Dewpoint Dewpoint Depression Visibility Wind Speed Wind Dir Waves Ship Positions
date/time (UTC)wind fromknots sea level pressurealtimeterstation pressurevisibilityair tempwater tempwave heightnotes
2015-Aug-28 13:20 250 26 14.0
2015-Aug-28 12:50 250 25 14.0
2015-Aug-28 12:10 250 25 5.414.0
2015-Aug-28 11:50 250 24 14.0
2015-Aug-28 11:20 250 25 14.0
2015-Aug-28 10:50 250 26 14.0
2015-Aug-28 10:20 260 27 14.0
2015-Aug-28 09:50 260 26 14.0
2015-Aug-28 09:10 260 27 5.414.0
2015-Aug-28 08:50 250 26 14.0
2015-Aug-28 08:20 260 27 14.0
2015-Aug-28 07:50 260 26 14.0
2015-Aug-28 07:20 270 24 14.0
2015-Aug-28 06:50 270 26 14.0
2015-Aug-28 06:20 270 25 5.414.0 Showers in the vicinity.
2015-Aug-28 05:50 280 19 15.0
2015-Aug-28 05:20 290 23 14.0
2015-Aug-28 04:50 290 22 15.0
2015-Aug-28 04:20 290 24 16.0
2015-Aug-28 03:50 300 24 15.0
2015-Aug-28 03:20 310 20 15.0
2015-Aug-28 02:50 310 18 15.0
2015-Aug-28 02:20 320 16 14.0
2015-Aug-28 01:50 310 18 14.0
2015-Aug-28 01:20 310 18 15.0
2015-Aug-28 00:50 310 17 15.0
2015-Aug-28 00:20 310 19 15.0
2015-Aug-27 23:50 310 17 15.0
2015-Aug-27 23:20 310 17 16.0
2015-Aug-27 22:50 310 16 16.0
2015-Aug-27 22:20 310 14 16.0
2015-Aug-27 21:50 300 10 16.0
2015-Aug-27 21:20 310 9 15.0
2015-Aug-27 20:50 300 8 16.0
2015-Aug-27 20:20 290 7 16.0
2015-Aug-27 19:50 310 5 15.0
2015-Aug-27 19:20 360 1 15.0
2015-Aug-27 18:50 040 6 16.0
2015-Aug-27 18:20 040 5 15.0
2015-Aug-27 17:50 030 4 16.0
2015-Aug-27 17:20 040 6 16.0
2015-Aug-27 16:50 040 7 17.0
2015-Aug-27 16:20 040 7 17.0
2015-Aug-27 15:50 030 7 16.0
2015-Aug-27 15:10 010 9 17.0
2015-Aug-27 14:50 360 8 17.0
2015-Aug-27 14:20 360 8 17.0
2015-Aug-27 13:50 360 6 17.0
2015-Aug-27 13:20 020 8 16.0
2015-Aug-27 12:50 030 7 17.0
2015-Aug-27 12:20 030 7 5.417.0
2015-Aug-27 11:50 030 8 16.0
2015-Aug-27 11:20 010 9 17.0
2015-Aug-27 10:50 010 10 17.0
2015-Aug-27 10:20 17.0
2015-Aug-27 09:50 050 5 17.0
2015-Aug-27 09:20 070 5 5.417.0 Light rain.
2015-Aug-27 08:50 080 9 17.0
2015-Aug-27 08:20 120 12 15.0
2015-Aug-27 07:50 120 10 15.0
2015-Aug-27 07:20 120 4 16.0
2015-Aug-27 06:50 17.0
2015-Aug-27 06:10 170 4 17.0
2015-Aug-27 05:50 160 5 17.0
2015-Aug-27 05:20 170 6 17.0
2015-Aug-27 04:50 190 7 17.0
2015-Aug-27 04:20 200 10 17.0
2015-Aug-27 03:50 190 13 17.0
2015-Aug-27 03:20 180 13 17.0
2015-Aug-27 02:50 160 14 16.0
2015-Aug-27 02:20 140 15 16.0
2015-Aug-27 01:50 120 17 16.0
2015-Aug-27 01:20 110 18 16.0
2015-Aug-27 00:50 090 17 15.0
2015-Aug-27 00:20 080 20 15.0
2015-Aug-26 23:50 070 20 15.0
2015-Aug-26 23:20 060 17 15.0
2015-Aug-26 22:50 060 19 15.0
2015-Aug-26 22:20 050 19 16.0
2015-Aug-26 21:50 050 17 16.0
2015-Aug-26 21:20 040 15 16.0
2015-Aug-26 20:50 030 14 15.0
2015-Aug-26 20:20 020 11 15.0
2015-Aug-26 19:50 010 10 15.0
2015-Aug-26 19:20 010 6 15.0
2015-Aug-26 18:50 350 9 15.0
2015-Aug-26 18:20 320 8 15.0
2015-Aug-26 17:50 310 12 17.0
2015-Aug-26 17:20 290 13 17.0
2015-Aug-26 16:50 280 16 16.0
2015-Aug-26 16:20 270 16 16.0
2015-Aug-26 15:50 260 13 16.0
2015-Aug-26 15:10 250 15 5.415.0
2015-Aug-26 14:50 240 15 15.0
2015-Aug-26 14:20 260 11 17.0